WA6MHA-11 Weather Reports


Display with metric or nautical units.
time (UTC)temp
F
wind
direction
speed
MPH
gust
MPH
rain 1hr
in
rain 24hr
in
rain mn
in
humidity
%
barometer
mb
20171022094928 59 0 0.0 2.0 0.00 0.00 0.00 30 1021.5
20171022094840 59 0 0.0 2.0 0.00 0.00 0.00 30 1021.5
20171022094835 59 0 0.0 2.0 0.00 0.00 0.00 30 1021.5
20171022094537 59 225 1.0 2.0 0.00 0.00 0.00 30 1021.5
20171022094434 59 225 1.0 2.0 0.00 0.00 0.00 30 1021.5
20171022094037 59 225 1.0 2.0 0.00 0.00 0.00 30 1021.5
20171022094033 59 225 1.0 2.0 0.00 0.00 0.00 30 1021.5
20171022093640 60 312 1.0 3.0 0.00 0.00 0.00 30 1021.5
20171022093632 60 312 1.0 3.0 0.00 0.00 0.00 30 1021.5
20171022093235 60 276 1.0 3.0 0.00 0.00 0.00 30 1021.5
20171022093230 60 276 1.0 3.0 0.00 0.00 0.00 30 1021.5
20171022092829 60 225 2.0 2.0 0.00 0.00 0.00 30 1021.5
20171022092519 60 225 3.0 3.0 0.00 0.00 0.00 30 1021.4
20171022092432 60 225 3.0 3.0 0.00 0.00 0.00 30 1021.4
20171022092428 60 225 3.0 3.0 0.00 0.00 0.00 30 1021.4
20171022092031 60 319 1.0 2.0 0.00 0.00 0.00 30 1021.5
20171022092026 60 319 1.0 2.0 0.00 0.00 0.00 30 1021.5
20171022091630 61 225 1.0 2.0 0.00 0.00 0.00 30 1021.6
20171022091625 61 225 1.0 2.0 0.00 0.00 0.00 30 1021.6
20171022091224 61 225 2.0 3.0 0.00 0.00 0.00 30 1021.6
20171022090825 62 225 2.0 4.0 0.00 0.00 0.00 30 1021.6
20171022090822 62 225 2.0 4.0 0.00 0.00 0.00 30 1021.6
20171022090420 62 272 2.0 3.0 0.00 0.00 0.00 30 1021.6
20171022090024 62 225 2.0 3.0 0.00 0.00 0.00 30 1021.6
20171022090019 62 225 2.0 3.0 0.00 0.00 0.00 30 1021.6
20171022085618 62 279 1.0 3.0 0.00 0.00 0.00 30 1021.6
20171022085222 62 245 2.0 3.0 0.00 0.00 0.00 30 1021.6
20171022085217 62 245 2.0 3.0 0.00 0.00 0.00 30 1021.6
20171022084821 63 272 0.0 4.0 0.00 0.00 0.00 30 1021.6
20171022084816 63 272 0.0 4.0 0.00 0.00 0.00 30 1021.6
20171022084418 63 261 4.0 4.0 0.00 0.00 0.00 30 1021.5
20171022084414 63 261 4.0 4.0 0.00 0.00 0.00 30 1021.5
20171022084016 63 222 3.0 5.0 0.00 0.00 0.00 30 1021.6
20171022084012 63 222 3.0 5.0 0.00 0.00 0.00 30 1021.6
20171022083616 62 267 4.0 7.0 0.00 0.00 0.00 30 1021.5
20171022083611 62 267 4.0 7.0 0.00 0.00 0.00 30 1021.5
20171022083320 61 249 2.0 4.0 0.00 0.00 0.00 30 1021.6
20171022083213 61 249 2.0 4.0 0.00 0.00 0.00 30 1021.6
20171022083210 61 249 2.0 4.0 0.00 0.00 0.00 30 1021.6
20171022082812 62 267 4.0 6.0 0.00 0.00 0.00 30 1021.5
20171022082809 62 267 4.0 6.0 0.00 0.00 0.00 30 1021.5
20171022082414 61 274 2.0 4.0 0.00 0.00 0.00 30 1021.6
20171022082408 61 274 2.0 4.0 0.00 0.00 0.00 30 1021.6
20171022081609 62 247 3.0 4.0 0.00 0.00 0.00 30 1021.6
20171022081604 62 247 3.0 4.0 0.00 0.00 0.00 30 1021.6
20171022081203 62 229 2.0 5.0 0.00 0.00 0.00 30 1021.7
20171022080807 61 276 1.0 6.0 0.00 0.00 0.00 30 1021.7
20171022080802 61 276 1.0 6.0 0.00 0.00 0.00 30 1021.7
20171022080401 61 220 2.0 4.0 0.00 0.00 0.00 30 1021.7
20171022080325 61 233 3.0 5.0 0.00 0.00 0.00 30 1021.7
20171022080246 61 233 3.0 5.0 0.00 0.00 0.00 30 1021.7
20171022080003 61 233 3.0 5.0 0.00 0.00 0.00 30 1021.7
20171022080000 61 233 3.0 5.0 0.00 0.00 0.00 30 1021.7
20171022075558 60 254 1.0 5.0 0.00 0.00 0.00 30 1021.7
20171022075213 60 209 3.0 7.0 0.00 0.00 0.00 30 1021.7
20171022075210 60 209 3.0 7.0 0.00 0.00 0.00 30 1021.7
20171022075157 60 209 3.0 7.0 0.00 0.00 0.00 30 1021.7
20171022074755 61 180 2.0 4.0 0.00 0.00 0.00 30 1021.8
20171022074354 61 227 3.0 4.0 0.00 0.00 0.00 30 1021.8
20171022073953 61 270 3.0 4.0 0.00 0.00 0.00 30 1021.7
20171022073552 61 241 1.0 3.0 0.00 0.00 0.00 30 1021.6
20171022073403 61 213 2.0 4.0 0.00 0.00 0.00 30 1021.7
20171022073306 61 213 2.0 4.0 0.00 0.00 0.00 30 1021.7
20171022073155 61 213 2.0 4.0 0.00 0.00 0.00 30 1021.7
20171022073150 61 213 2.0 4.0 0.00 0.00 0.00 30 1021.7
20171022072749 62 263 2.0 4.0 0.00 0.00 0.00 30 1021.7
20171022072347 62 234 3.0 8.0 0.00 0.00 0.00 30 1021.7
20171022071951 61 225 1.0 2.0 0.00 0.00 0.00 30 1021.8
20171022071947 61 225 1.0 2.0 0.00 0.00 0.00 30 1021.8
20171022071710 61 230 0.0 2.0 0.00 0.00 0.00 30 1021.9
20171022071545 61 230 0.0 2.0 0.00 0.00 0.00 30 1021.9
20171022071144 61 243 3.0 4.0 0.00 0.00 0.00 30 1021.9
20171022070742 61 306 0.0 3.0 0.00 0.00 0.00 30 1021.9
20171022070422 61 270 2.0 2.0 0.00 0.00 0.00 29 1021.9
20171022070341 61 270 2.0 2.0 0.00 0.00 0.00 29 1021.9
20171022065940 61 238 2.0 3.0 0.00 0.00 0.00 29 1022.0
20171022065647 61 270 3.0 3.0 0.00 0.00 0.00 29 1021.9
20171022065538 61 270 3.0 3.0 0.00 0.00 0.00 29 1021.9
20171022065222 61 270 1.0 2.0 0.00 0.00 0.00 29 1021.8
20171022065137 61 270 1.0 2.0 0.00 0.00 0.00 29 1021.8
20171022064736 61 335 0.0 3.0 0.00 0.00 0.00 29 1021.9
20171022063937 62 319 2.0 5.0 0.00 0.00 0.00 29 1021.9
20171022063933 62 319 2.0 5.0 0.00 0.00 0.00 29 1021.9
20171022063532 62 252 3.0 3.0 0.00 0.00 0.00 29 1021.8
20171022063256 63 229 2.0 4.0 0.00 0.00 0.00 29 1021.9
20171022063137 63 229 2.0 4.0 0.00 0.00 0.00 29 1021.9
20171022063135 63 229 2.0 4.0 0.00 0.00 0.00 29 1021.9
20171022063130 63 229 2.0 4.0 0.00 0.00 0.00 29 1021.9
20171022062729 62 216 1.0 5.0 0.00 0.00 0.00 29 1021.8
20171022062328 63 200 5.0 5.0 0.00 0.00 0.00 29 1021.8
20171022061927 63 200 3.0 4.0 0.00 0.00 0.00 29 1021.7
20171022061525 63 227 3.0 4.0 0.00 0.00 0.00 29 1021.7
20171022061124 63 270 3.0 5.0 0.00 0.00 0.00 28 1021.7
20171022060733 63 265 3.0 4.0 0.00 0.00 0.00 28 1021.6
20171022060722 63 265 3.0 4.0 0.00 0.00 0.00 28 1021.6
20171022060321 63 234 3.0 6.0 0.00 0.00 0.00 28 1021.6
20171022055920 63 205 2.0 4.0 0.00 0.00 0.00 28 1021.6
20171022055529 63 310 0.0 3.0 0.00 0.00 0.00 28 1021.6
20171022055519 63 310 0.0 3.0 0.00 0.00 0.00 28 1021.6
20171022055245 63 285 1.0 4.0 0.00 0.00 0.00 28 1021.6
20171022055121 63 285 1.0 4.0 0.00 0.00 0.00 28 1021.6
20171022055117 63 285 1.0 4.0 0.00 0.00 0.00 28 1021.6
20171022054716 63 270 4.0 6.0 0.00 0.00 0.00 28 1021.5
20171022054315 63 225 3.0 4.0 0.00 0.00 0.00 28 1021.5
20171022053913 63 330 0.0 5.0 0.00 0.00 0.00 28 1021.5
20171022053517 63 310 1.0 2.0 0.00 0.00 0.00 28 1021.5
20171022053512 63 310 1.0 2.0 0.00 0.00 0.00 28 1021.5
20171022053114 63 265 1.0 2.0 0.00 0.00 0.00 28 1021.4
20171022053111 63 265 1.0 2.0 0.00 0.00 0.00 28 1021.4
20171022052713 63 261 1.0 6.0 0.00 0.00 0.00 28 1021.3
20171022052709 63 261 1.0 6.0 0.00 0.00 0.00 28 1021.3
20171022052312 63 227 4.0 4.0 0.00 0.00 0.00 27 1021.2
20171022052308 63 227 4.0 4.0 0.00 0.00 0.00 27 1021.2
20171022051907 64 225 2.0 2.0 0.00 0.00 0.00 27 1021.3
20171022051614 64 265 0.0 3.0 0.00 0.00 0.00 27 1021.3
20171022051512 64 265 0.0 3.0 0.00 0.00 0.00 27 1021.3
20171022051505 64 265 0.0 3.0 0.00 0.00 0.00 27 1021.3
20171022051204 64 238 1.0 5.0 0.00 0.00 0.00 27 1021.2
20171022051110 64 238 1.0 5.0 0.00 0.00 0.00 27 1021.2
20171022051104 64 238 1.0 5.0 0.00 0.00 0.00 27 1021.2
20171022050851 64 236 1.0 3.0 0.00 0.00 0.00 27 1021.2
20171022050706 64 236 1.0 3.0 0.00 0.00 0.00 27 1021.2
20171022050703 64 236 1.0 3.0 0.00 0.00 0.00 27 1021.2
20171022050308 65 249 1.0 3.0 0.00 0.00 0.00 27 1021.2
20171022050305 65 249 1.0 3.0 0.00 0.00 0.00 27 1021.2
20171022050301 65 249 1.0 3.0 0.00 0.00 0.00 27 1021.2
20171022050010 65 225 1.0 3.0 0.00 0.00 0.00 26 1021.1
20171022045905 65 225 1.0 3.0 0.00 0.00 0.00 26 1021.1
20171022045900 65 225 1.0 3.0 0.00 0.00 0.00 26 1021.1
20171022045624 65 254 3.0 4.0 0.00 0.00 0.00 26 1021.1
20171022045459 65 254 3.0 4.0 0.00 0.00 0.00 26 1021.1
20171022045058 66 243 2.0 4.0 0.00 0.00 0.00 26 1021.0
20171022044656 66 225 2.0 4.0 0.00 0.00 0.00 26 1021.0
20171022044300 66 270 1.0 3.0 0.00 0.00 0.00 26 1020.9
20171022044258 66 270 1.0 3.0 0.00 0.00 0.00 26 1020.9
20171022044255 66 270 1.0 3.0 0.00 0.00 0.00 26 1020.9
20171022043953 67 288 1.0 3.0 0.00 0.00 0.00 25 1020.9
20171022043904 67 288 1.0 3.0 0.00 0.00 0.00 25 1020.9
20171022043853 67 288 1.0 3.0 0.00 0.00 0.00 25 1020.9
20171022043558 67 276 2.0 3.0 0.00 0.00 0.00 25 1020.8
20171022043456 67 276 2.0 3.0 0.00 0.00 0.00 25 1020.8
20171022043452 67 276 2.0 3.0 0.00 0.00 0.00 25 1020.8
20171022043147 67 287 1.0 4.0 0.00 0.00 0.00 25 1020.9
20171022043055 67 287 1.0 4.0 0.00 0.00 0.00 25 1020.9
20171022043051 67 287 1.0 4.0 0.00 0.00 0.00 25 1020.9
20171022042654 67 229 2.0 3.0 0.00 0.00 0.00 25 1020.9
20171022042650 67 229 2.0 3.0 0.00 0.00 0.00 25 1020.9
20171022042434 67 265 3.0 4.0 0.00 0.00 0.00 25 1020.8
20171022042255 67 265 3.0 4.0 0.00 0.00 0.00 25 1020.8
20171022042248 67 265 3.0 4.0 0.00 0.00 0.00 25 1020.8
20171022041847 67 245 3.0 3.0 0.00 0.00 0.00 25 1020.7
20171022041445 68 234 3.0 3.0 0.00 0.00 0.00 25 1020.7
20171022041048 68 195 4.0 5.0 0.00 0.00 0.00 24 1020.6
20171022041044 68 195 4.0 5.0 0.00 0.00 0.00 24 1020.6
20171022040643 68 195 3.0 6.0 0.00 0.00 0.00 24 1020.5
20171022040443 69 180 3.0 3.0 0.00 0.00 0.00 24 1020.5
20171022040246 69 180 3.0 3.0 0.00 0.00 0.00 24 1020.5
20171022040242 69 180 3.0 3.0 0.00 0.00 0.00 24 1020.5
20171022035841 70 222 2.0 3.0 0.00 0.00 0.00 24 1020.4
20171022035043 71 0 0.0 3.0 0.00 0.00 0.00 23 1020.3
20171022035041 71 0 0.0 3.0 0.00 0.00 0.00 23 1020.3
20171022035037 71 0 0.0 3.0 0.00 0.00 0.00 23 1020.3
20171022034636 71 288 1.0 5.0 0.00 0.00 0.00 23 1020.3
20171022034315 72 306 2.0 5.0 0.00 0.00 0.00 23 1020.3
20171022034240 72 306 2.0 5.0 0.00 0.00 0.00 23 1020.3
20171022034235 72 306 2.0 5.0 0.00 0.00 0.00 23 1020.3
20171022033919 72 317 5.0 5.0 0.00 0.00 0.00 22 1020.3
20171022033839 72 317 5.0 5.0 0.00 0.00 0.00 22 1020.3
20171022033837 72 317 5.0 5.0 0.00 0.00 0.00 22 1020.3
20171022033834 72 317 5.0 5.0 0.00 0.00 0.00 22 1020.3
20171022033512 72 324 3.0 5.0 0.00 0.00 0.00 22 1020.2
20171022033439 72 324 3.0 5.0 0.00 0.00 0.00 22 1020.2
20171022033433 72 324 3.0 5.0 0.00 0.00 0.00 22 1020.2
20171022033036 73 272 1.0 6.0 0.00 0.00 0.00 22 1020.3
20171022032636 73 342 5.0 6.0 0.00 0.00 0.00 22 1020.2
20171022032629 73 342 5.0 6.0 0.00 0.00 0.00 22 1020.2
20171022032228 74 353 6.0 10.0 0.00 0.00 0.00 22 1020.2
20171022031827 73 355 6.0 7.0 0.00 0.00 0.00 22 1020.3
20171022031518 73 348 3.0 8.0 0.00 0.00 0.00 22 1020.1
20171022031433 73 348 3.0 8.0 0.00 0.00 0.00 22 1020.1
20171022031431 73 348 3.0 8.0 0.00 0.00 0.00 22 1020.1
20171022031426 73 348 3.0 8.0 0.00 0.00 0.00 22 1020.1
20171022031025 74 0 7.0 8.0 0.00 0.00 0.00 22 1020.2
20171022030701 74 330 4.0 11.0 0.00 0.00 0.00 22 1020.2
20171022030629 74 330 4.0 11.0 0.00 0.00 0.00 22 1020.2
20171022030627 74 330 4.0 11.0 0.00 0.00 0.00 22 1020.2
20171022030623 74 330 4.0 11.0 0.00 0.00 0.00 22 1020.2
20171022030229 73 0 4.0 7.0 0.00 0.00 0.00 22 1020.1
20171022030221 73 0 4.0 7.0 0.00 0.00 0.00 22 1020.1
20171022025827 74 0 3.0 9.0 0.00 0.00 0.00 22 1020.1
20171022025820 74 0 3.0 9.0 0.00 0.00 0.00 22 1020.1
20171022025516 74 353 6.0 11.0 0.00 0.00 0.00 22 1020.1
20171022025423 74 353 6.0 11.0 0.00 0.00 0.00 22 1020.1
20171022025419 74 353 6.0 11.0 0.00 0.00 0.00 22 1020.1
20171022025018 74 357 10.0 10.0 0.00 0.00 0.00 23 1020.0
20171022024621 74 339 6.0 10.0 0.00 0.00 0.00 23 1020.1
20171022024617 74 339 6.0 10.0 0.00 0.00 0.00 23 1020.1
20171022024426 74 6 9.0 11.0 0.00 0.00 0.00 23 1020.0
20171022024219 74 6 9.0 11.0 0.00 0.00 0.00 23 1020.0
20171022024215 74 6 9.0 11.0 0.00 0.00 0.00 23 1020.0
20171022023820 74 0 4.0 8.0 0.00 0.00 0.00 23 1020.0
20171022023814 74 0 4.0 8.0 0.00 0.00 0.00 23 1020.0
20171022023412 74 0 4.0 7.0 0.00 0.00 0.00 23 1020.1
20171022023015 74 357 4.0 9.0 0.00 0.00 0.00 23 1020.1
20171022023011 74 357 4.0 9.0 0.00 0.00 0.00 23 1020.1
20171022022610 73 0 7.0 7.0 0.00 0.00 0.00 23 1020.0
20171022022215 73 2 4.0 7.0 0.00 0.00 0.00 23 1020.0
20171022022213 73 2 4.0 7.0 0.00 0.00 0.00 23 1020.0
20171022022209 73 2 4.0 7.0 0.00 0.00 0.00 23 1020.0
20171022021807 74 9 3.0 8.0 0.00 0.00 0.00 23 1020.0
20171022021445 74 351 4.0 8.0 0.00 0.00 0.00 23 1020.0
20171022021412 74 351 4.0 8.0 0.00 0.00 0.00 23 1020.0
20171022021410 74 351 4.0 8.0 0.00 0.00 0.00 23 1020.0
20171022021408 74 351 4.0 8.0 0.00 0.00 0.00 23 1020.0
20171022021406 74 351 4.0 8.0 0.00 0.00 0.00 23 1020.0
20171022021004 74 6 3.0 5.0 0.00 0.00 0.00 23 1020.0
20171022020609 74 335 5.0 6.0 0.00 0.00 0.00 23 1019.9
20171022020603 74 335 5.0 6.0 0.00 0.00 0.00 23 1019.9
20171022020248 74 337 1.0 4.0 0.00 0.00 0.00 23 1019.9
20171022020207 74 337 1.0 4.0 0.00 0.00 0.00 23 1019.9
20171022020202 74 337 1.0 4.0 0.00 0.00 0.00 23 1019.9
20171022015804 74 4 4.0 4.0 0.00 0.00 0.00 23 1019.8
20171022015801 74 4 4.0 4.0 0.00 0.00 0.00 23 1019.8
20171022015501 75 351 4.0 8.0 0.00 0.00 0.00 23 1019.8
20171022015408 75 351 4.0 8.0 0.00 0.00 0.00 23 1019.8
20171022015406 75 351 4.0 8.0 0.00 0.00 0.00 23 1019.8
20171022015400 75 351 4.0 8.0 0.00 0.00 0.00 23 1019.8
20171022015002 75 346 6.0 8.0 0.00 0.00 0.00 23 1019.8
20171022014958 75 346 6.0 8.0 0.00 0.00 0.00 23 1019.8
20171022014721 75 0 7.0 9.0 0.00 0.00 0.00 23 1019.8
20171022014604 75 0 7.0 9.0 0.00 0.00 0.00 23 1019.8
20171022014602 75 0 7.0 9.0 0.00 0.00 0.00 23 1019.8
20171022014557 75 0 7.0 9.0 0.00 0.00 0.00 23 1019.8
20171022013800 74 0 7.0 7.0 0.00 0.00 0.00 23 1019.7
20171022013754 74 0 7.0 7.0 0.00 0.00 0.00 23 1019.7
20171022013353 74 4 5.0 7.0 0.00 0.00 0.00 23 1019.7
20171022012955 74 22 4.0 5.0 0.00 0.00 0.00 23 1019.6
20171022012952 74 22 4.0 5.0 0.00 0.00 0.00 23 1019.6
20171022012554 74 6 5.0 5.0 0.00 0.00 0.00 23 1019.6
20171022012550 74 6 5.0 5.0 0.00 0.00 0.00 23 1019.6
20171022012154 75 319 1.0 2.0 0.00 0.00 0.00 22 1019.5
20171022012152 75 319 1.0 2.0 0.00 0.00 0.00 22 1019.5
20171022012149 75 319 1.0 2.0 0.00 0.00 0.00 22 1019.5
20171022011748 75 0 1.0 3.0 0.00 0.00 0.00 22 1019.5
20171022011551 75 225 0.0 1.0 0.00 0.00 0.00 21 1019.5
20171022011455 75 225 0.0 1.0 0.00 0.00 0.00 21 1019.5
20171022011355 75 225 0.0 1.0 0.00 0.00 0.00 21 1019.5
20171022011346 75 225 0.0 1.0 0.00 0.00 0.00 21 1019.5
20171022011028 76 45 0.0 4.0 0.00 0.00 0.00 21 1019.4
20171022011000 76 45 0.0 4.0 0.00 0.00 0.00 21 1019.4
20171022010958 76 45 0.0 4.0 0.00 0.00 0.00 21 1019.4
20171022010945 76 45 0.0 4.0 0.00 0.00 0.00 21 1019.4
20171022010544 76 42 3.0 4.0 0.00 0.00 0.00 21 1019.4
20171022010147 76 321 2.0 4.0 0.00 0.00 0.00 23 1019.4
20171022010142 76 321 2.0 4.0 0.00 0.00 0.00 23 1019.4
20171022005741 76 285 2.0 4.0 0.00 0.00 0.00 24 1019.2
20171022005440 76 333 0.0 1.0 0.00 0.00 0.00 24 1019.2
20171022005345 76 333 0.0 1.0 0.00 0.00 0.00 24 1019.2
20171022005340 76 333 0.0 1.0 0.00 0.00 0.00 24 1019.2
20171022004539 77 95 0.0 1.0 0.00 0.00 0.00 23 1019.1
20171022004537 77 95 0.0 1.0 0.00 0.00 0.00 23 1019.1
20171022004137 78 182 1.0 1.0 0.00 0.00 0.00 23 1019.1
20171022003738 78 180 1.0 2.0 0.00 0.00 0.00 23 1019.1
20171022003734 78 180 1.0 2.0 0.00 0.00 0.00 23 1019.1
20171022003339 78 180 3.0 3.0 0.00 0.00 0.00 23 1019.1
20171022003333 78 180 3.0 3.0 0.00 0.00 0.00 23 1019.1
20171022003014 78 112 2.0 2.0 0.00 0.00 0.00 23 1019.0
20171022002932 78 112 2.0 2.0 0.00 0.00 0.00 23 1019.0
20171022002535 79 90 0.0 2.0 0.00 0.00 0.00 22 1019.0
20171022002531 79 90 0.0 2.0 0.00 0.00 0.00 22 1019.0
20171022002135 79 92 2.0 2.0 0.00 0.00 0.00 22 1019.0
20171022002133 79 92 2.0 2.0 0.00 0.00 0.00 22 1019.0
20171022002129 79 92 2.0 2.0 0.00 0.00 0.00 22 1019.0
20171022001330 79 128 1.0 3.0 0.00 0.00 0.00 22 1018.9
20171022001326 79 128 1.0 3.0 0.00 0.00 0.00 22 1018.9
20171022000524 79 114 5.0 7.0 0.00 0.00 0.00 21 1018.9
20171021235721 79 119 7.0 9.0 0.00 0.00 0.00 21 1018.7
20171021235415 80 87 9.0 11.0 0.00 0.00 0.00 21 1018.7
20171021235333 80 87 9.0 11.0 0.00 0.00 0.00 21 1018.7
20171021235331 80 87 9.0 11.0 0.00 0.00 0.00 21 1018.7
20171021235321 80 87 9.0 11.0 0.00 0.00 0.00 21 1018.7
20171021234920 81 90 8.0 10.0 0.00 0.00 0.00 21 1018.6
20171021234918 81 90 8.0 10.0 0.00 0.00 0.00 21 1018.6
20171021234517 81 90 7.0 9.0 0.00 0.00 0.00 21 1018.6
20171021234117 81 45 7.0 9.0 0.00 0.00 0.00 22 1018.5
20171021233715 81 58 6.0 10.0 0.00 0.00 0.00 22 1018.4
20171021233500 84 187 4.0 5.0 0.00 0.00 0.00 21 1017.9
20171021233449 83 353 6.0 10.0 0.00 0.00 0.00 22 1018.3
20171021233432 82 45 6.0 10.0 0.00 0.00 0.00 22 1018.4
20171021233428 84 45 0.0 4.0 0.00 0.00 0.00 22 1018.1
20171021233416 83 353 6.0 10.0 0.00 0.00 0.00 22 1018.3
20171021233401 82 45 6.0 10.0 0.00 0.00 0.00 22 1018.4
20171021233357 83 353 10.0 10.0 0.00 0.00 0.00 22 1018.3
20171021233345 83 353 6.0 10.0 0.00 0.00 0.00 22 1018.3
20171021233329 82 45 6.0 10.0 0.00 0.00 0.00 22 1018.4
20171021233323 84 351 3.0 9.0 0.00 0.00 0.00 21 1018.1
20171021233314 82 45 9.0 10.0 0.00 0.00 0.00 22 1018.4
20171021233312 83 353 6.0 10.0 0.00 0.00 0.00 22 1018.3
20171021233256 82 45 6.0 10.0 0.00 0.00 0.00 22 1018.4
20171021233250 84 9 3.0 6.0 0.00 0.00 0.00 22 1018.2
20171021233239 83 353 6.0 10.0 0.00 0.00 0.00 22 1018.3
20171021233222 82 45 6.0 10.0 0.00 0.00 0.00 22 1018.4
20171021233217 84 45 0.0 4.0 0.00 0.00 0.00 22 1018.1
20171021233206 83 353 6.0 10.0 0.00 0.00 0.00 22 1018.3
20171021233149 82 45 6.0 10.0 0.00 0.00 0.00 22 1018.4
20171021233143 84 306 2.0 5.0 0.00 0.00 0.00 21 1018.2
20171021233131 83 353 6.0 10.0 0.00 0.00 0.00 22 1018.3
20171021233116 82 45 6.0 10.0 0.00 0.00 0.00 22 1018.4
20171021233109 83 353 10.0 10.0 0.00 0.00 0.00 22 1018.3
20171021233040 82 45 6.0 10.0 0.00 0.00 0.00 22 1018.4
20171021233033 84 45 0.0 4.0 0.00 0.00 0.00 22 1018.1
20171021233024 83 353 6.0 10.0 0.00 0.00 0.00 22 1018.3
20171021233008 82 45 6.0 10.0 0.00 0.00 0.00 22 1018.4
20171021232958 84 45 0.0 4.0 0.00 0.00 0.00 22 1018.1
20171021232949 83 353 6.0 10.0 0.00 0.00 0.00 22 1018.3
20171021232931 82 45 6.0 10.0 0.00 0.00 0.00 22 1018.4
20171021232923 84 9 3.0 6.0 0.00 0.00 0.00 22 1018.2
20171021232914 83 353 6.0 10.0 0.00 0.00 0.00 22 1018.3
20171021232912 82 42 8.0 10.0 0.00 0.00 0.00 22 1018.5
20171021232856 82 45 6.0 10.0 0.00 0.00 0.00 22 1018.4
20171021232847 84 187 4.0 5.0 0.00 0.00 0.00 21 1017.9
20171021232839 83 353 6.0 10.0 0.00 0.00 0.00 22 1018.3
20171021232821 82 45 6.0 10.0 0.00 0.00 0.00 22 1018.4
20171021232810 84 187 4.0 5.0 0.00 0.00 0.00 21 1017.9
20171021232739 84 187 4.0 5.0 0.00 0.00 0.00 21 1017.9
20171021232729 83 353 6.0 10.0 0.00 0.00 0.00 22 1018.3
20171021232718 82 45 6.0 10.0 0.00 0.00 0.00 22 1018.4
20171021232707 84 9 3.0 6.0 0.00 0.00 0.00 22 1018.2
20171021232654 83 353 6.0 10.0 0.00 0.00 0.00 22 1018.3
20171021232642 82 45 6.0 10.0 0.00 0.00 0.00 22 1018.4
20171021232630 84 45 0.0 4.0 0.00 0.00 0.00 22 1018.1
20171021232618 83 353 6.0 10.0 0.00 0.00 0.00 22 1018.3
20171021232606 82 45 6.0 10.0 0.00 0.00 0.00 22 1018.4
20171021232552 84 351 3.0 9.0 0.00 0.00 0.00 21 1018.1
20171021232538 83 353 6.0 10.0 0.00 0.00 0.00 22 1018.3
20171021232514 82 45 6.0 10.0 0.00 0.00 0.00 22 1018.4
20171021232511 84 45 0.0 4.0 0.00 0.00 0.00 22 1018.1
20171021232439 84 187 4.0 5.0 0.00 0.00 0.00 21 1017.9
20171021232424 83 353 6.0 10.0 0.00 0.00 0.00 22 1018.3
20171021232409 84 45 0.0 4.0 0.00 0.00 0.00 22 1018.1
20171021232338 84 351 3.0 9.0 0.00 0.00 0.00 21 1018.1
20171021232323 83 353 6.0 10.0 0.00 0.00 0.00 22 1018.3
20171021232306 84 351 3.0 9.0 0.00 0.00 0.00 21 1018.1
20171021232249 83 353 6.0 10.0 0.00 0.00 0.00 22 1018.3
20171021232230 84 187 4.0 5.0 0.00 0.00 0.00 21 1017.9
20171021232212 83 353 6.0 10.0 0.00 0.00 0.00 22 1018.3
20171021232153 83 353 10.0 10.0 0.00 0.00 0.00 22 1018.3
20171021232133 83 353 6.0 10.0 0.00 0.00 0.00 22 1018.3
20171021232112 84 45 0.0 4.0 0.00 0.00 0.00 22 1018.1
20171021232109 83 353 10.0 10.0 0.00 0.00 0.00 22 1018.3
20171021232052 83 353 6.0 10.0 0.00 0.00 0.00 22 1018.3
20171021232032 84 9 3.0 6.0 0.00 0.00 0.00 22 1018.2
20171021232012 83 353 6.0 10.0 0.00 0.00 0.00 22 1018.3
20171021231950 84 306 2.0 5.0 0.00 0.00 0.00 21 1018.2
20171021231927 83 353 6.0 10.0 0.00 0.00 0.00 22 1018.3
20171021231905 84 9 3.0 6.0 0.00 0.00 0.00 22 1018.2
20171021231844 83 353 6.0 10.0 0.00 0.00 0.00 22 1018.3
20171021231820 84 351 3.0 9.0 0.00 0.00 0.00 21 1018.1
20171021231757 83 353 6.0 10.0 0.00 0.00 0.00 22 1018.3
20171021231733 84 9 3.0 6.0 0.00 0.00 0.00 22 1018.2
20171021231708 83 353 6.0 10.0 0.00 0.00 0.00 22 1018.3
20171021231644 84 187 4.0 5.0 0.00 0.00 0.00 21 1017.9
20171021231554 84 306 2.0 5.0 0.00 0.00 0.00 21 1018.2
20171021231501 84 9 3.0 6.0 0.00 0.00 0.00 22 1018.2
20171021231407 84 351 3.0 9.0 0.00 0.00 0.00 21 1018.1
20171021231307 84 9 3.0 6.0 0.00 0.00 0.00 22 1018.2
20171021231240 84 187 4.0 5.0 0.00 0.00 0.00 21 1017.9
20171021231140 84 351 3.0 9.0 0.00 0.00 0.00 21 1018.1
20171021231108 84 351 3.0 9.0 0.00 0.00 0.00 21 1018.1
20171021231036 84 187 4.0 5.0 0.00 0.00 0.00 21 1017.9
20171021231005 84 187 4.0 5.0 0.00 0.00 0.00 21 1017.9
20171021230933 84 187 4.0 5.0 0.00 0.00 0.00 21 1017.9
20171021230901 84 45 0.0 4.0 0.00 0.00 0.00 22 1018.1
20171021230829 84 306 2.0 5.0 0.00 0.00 0.00 21 1018.2
20171021230758 84 187 4.0 5.0 0.00 0.00 0.00 21 1017.9
20171021230726 84 333 4.0 6.0 0.00 0.00 0.00 21 1018.3
20171021230724 84 187 4.0 5.0 0.00 0.00 0.00 21 1017.9
20171021230653 84 333 4.0 6.0 0.00 0.00 0.00 21 1018.3
20171021230651 84 351 3.0 9.0 0.00 0.00 0.00 21 1018.1
20171021230619 84 333 4.0 6.0 0.00 0.00 0.00 21 1018.3
20171021230546 84 333 4.0 6.0 0.00 0.00 0.00 21 1018.3
20171021230544 84 306 2.0 5.0 0.00 0.00 0.00 21 1018.2
20171021230513 84 333 4.0 6.0 0.00 0.00 0.00 21 1018.3
20171021230511 84 45 0.0 4.0 0.00 0.00 0.00 22 1018.1
20171021230509 84 351 3.0 9.0 0.00 0.00 0.00 21 1018.1
20171021230504 84 45 0.0 4.0 0.00 0.00 0.00 22 1018.1
20171021230437 84 333 4.0 6.0 0.00 0.00 0.00 21 1018.3
20171021230432 84 351 3.0 9.0 0.00 0.00 0.00 21 1018.1
20171021230401 84 333 4.0 6.0 0.00 0.00 0.00 21 1018.3
20171021230356 84 351 3.0 9.0 0.00 0.00 0.00 21 1018.1
20171021230324 84 333 4.0 6.0 0.00 0.00 0.00 21 1018.3
20171021230319 84 351 3.0 9.0 0.00 0.00 0.00 21 1018.1
20171021230248 84 333 4.0 6.0 0.00 0.00 0.00 21 1018.3
20171021230241 84 187 4.0 5.0 0.00 0.00 0.00 21 1017.9
20171021230210 84 333 4.0 6.0 0.00 0.00 0.00 21 1018.3
20171021230203 84 187 4.0 5.0 0.00 0.00 0.00 21 1017.9
20171021230131 84 333 4.0 6.0 0.00 0.00 0.00 21 1018.3
20171021230123 84 351 3.0 9.0 0.00 0.00 0.00 21 1018.1
20171021230110 84 306 2.0 5.0 0.00 0.00 0.00 21 1018.2
20171021230102 84 306 2.0 5.0 0.00 0.00 0.00 21 1018.2
20171021230052 84 333 4.0 6.0 0.00 0.00 0.00 21 1018.3
20171021230043 84 187 4.0 5.0 0.00 0.00 0.00 21 1017.9
20171021230012 84 333 4.0 6.0 0.00 0.00 0.00 21 1018.3
20171021230003 84 187 4.0 5.0 0.00 0.00 0.00 21 1017.9
20171021225932 84 333 4.0 6.0 0.00 0.00 0.00 21 1018.3
20171021225924 84 351 3.0 9.0 0.00 0.00 0.00 21 1018.1
20171021225852 84 333 4.0 6.0 0.00 0.00 0.00 21 1018.3
20171021225842 84 187 4.0 5.0 0.00 0.00 0.00 21 1017.9
20171021225811 84 333 4.0 6.0 0.00 0.00 0.00 21 1018.3
20171021225801 84 351 3.0 9.0 0.00 0.00 0.00 21 1018.1
20171021225729 84 333 4.0 6.0 0.00 0.00 0.00 21 1018.3
20171021225717 84 187 4.0 5.0 0.00 0.00 0.00 21 1017.9
20171021225708 84 351 3.0 9.0 0.00 0.00 0.00 21 1018.1
20171021225701 84 351 3.0 9.0 0.00 0.00 0.00 21 1018.1
20171021225646 84 333 4.0 6.0 0.00 0.00 0.00 21 1018.3
20171021225634 84 187 4.0 5.0 0.00 0.00 0.00 21 1017.9
20171021225603 84 333 4.0 6.0 0.00 0.00 0.00 21 1018.3
20171021225551 84 187 4.0 5.0 0.00 0.00 0.00 21 1017.9
20171021225520 84 333 4.0 6.0 0.00 0.00 0.00 21 1018.3
20171021225507 84 187 4.0 5.0 0.00 0.00 0.00 21 1017.9
20171021225435 84 333 4.0 6.0 0.00 0.00 0.00 21 1018.3
20171021225420 84 187 4.0 5.0 0.00 0.00 0.00 21 1017.9
20171021225349 84 333 4.0 6.0 0.00 0.00 0.00 21 1018.3
20171021225334 84 187 4.0 5.0 0.00 0.00 0.00 21 1017.9
20171021225313 84 187 4.0 5.0 0.00 0.00 0.00 21 1017.9
20171021225302 84 333 4.0 6.0 0.00 0.00 0.00 21 1018.3
20171021225300 84 187 4.0 5.0 0.00 0.00 0.00 21 1017.9
20171021225216 84 333 4.0 6.0 0.00 0.00 0.00 21 1018.3
20171021225128 84 333 4.0 6.0 0.00 0.00 0.00 21 1018.3
20171021225038 84 333 4.0 6.0 0.00 0.00 0.00 21 1018.3
20171021224949 84 333 4.0 6.0 0.00 0.00 0.00 21 1018.3
20171021224859 84 243 2.0 5.0 0.00 0.00 0.00 21 1018.1
20171021224808 84 333 4.0 6.0 0.00 0.00 0.00 21 1018.3
20171021224549 84 333 4.0 6.0 0.00 0.00 0.00 21 1018.3
20171021224458 84 333 4.0 6.0 0.00 0.00 0.00 21 1018.3
20171021224157 84 270 6.0 7.0 0.00 0.00 0.00 20 1018.1
20171021224101 84 270 6.0 7.0 0.00 0.00 0.00 20 1018.1
20171021224056 84 270 6.0 7.0 0.00 0.00 0.00 20 1018.1
20171021223655 83 267 8.0 11.0 0.00 0.00 0.00 20 1018.0
20171021223346 83 267 6.0 8.0 0.00 0.00 0.00 22 1018.1
20171021223300 83 267 6.0 8.0 0.00 0.00 0.00 22 1018.1
20171021223259 83 267 6.0 8.0 0.00 0.00 0.00 22 1018.1
20171021223254 83 267 6.0 8.0 0.00 0.00 0.00 22 1018.1
20171021222852 83 353 4.0 7.0 0.00 0.00 0.00 22 1018.2
20171021222543 83 301 3.0 9.0 0.00 0.00 0.00 21 1018.2
20171021222456 83 301 3.0 9.0 0.00 0.00 0.00 21 1018.2
20171021222451 83 301 3.0 9.0 0.00 0.00 0.00 21 1018.2
20171021222051 82 342 3.0 13.0 0.00 0.00 0.00 21 1018.2
20171021221648 82 0 7.0 9.0 0.00 0.00 0.00 21 1018.3
20171021221247 82 335 8.0 11.0 0.00 0.00 0.00 21 1018.2
20171021220845 82 306 7.0 11.0 0.00 0.00 0.00 21 1018.1
20171021220444 82 353 11.0 11.0 0.00 0.00 0.00 22 1018.2
20171021220043 82 342 5.0 9.0 0.00 0.00 0.00 22 1018.2
20171021215649 81 0 11.0 13.0 0.00 0.00 0.00 22 1018.1
20171021215642 81 0 11.0 13.0 0.00 0.00 0.00 22 1018.1
20171021215246 83 348 6.0 9.0 0.00 0.00 0.00 22 1018.2
20171021215243 83 348 6.0 9.0 0.00 0.00 0.00 22 1018.2
20171021215241 83 348 6.0 9.0 0.00 0.00 0.00 22 1018.2
20171021214848 82 339 7.0 14.0 0.00 0.00 0.00 22 1018.2
20171021214839 82 339 7.0 14.0 0.00 0.00 0.00 22 1018.2
20171021214442 82 0 6.0 11.0 0.00 0.00 0.00 23 1018.1
20171021214438 82 0 6.0 11.0 0.00 0.00 0.00 23 1018.1
20171021214133 83 328 6.0 10.0 0.00 0.00 0.00 23 1018.2
20171021214041 83 328 6.0 10.0 0.00 0.00 0.00 23 1018.2
20171021214036 83 328 6.0 10.0 0.00 0.00 0.00 23 1018.2
20171021213635 82 45 6.0 17.0 0.00 0.00 0.00 23 1018.2
20171021213334 82 353 5.0 10.0 0.00 0.00 0.00 24 1018.2
20171021213234 82 353 5.0 10.0 0.00 0.00 0.00 24 1018.2
20171021212836 83 292 6.0 9.0 0.00 0.00 0.00 24 1018.2
20171021212833 83 292 6.0 9.0 0.00 0.00 0.00 24 1018.2
20171021212431 85 335 6.0 8.0 0.00 0.00 0.00 25 1018.3
20171021212130 85 232 4.0 5.0 0.00 0.00 0.00 25 1018.4
20171021212036 85 232 4.0 5.0 0.00 0.00 0.00 25 1018.4
20171021212030 85 232 4.0 5.0 0.00 0.00 0.00 25 1018.4
20171021211635 85 45 1.0 4.0 0.00 0.00 0.00 25 1018.4
20171021211629 85 45 1.0 4.0 0.00 0.00 0.00 25 1018.4
20171021211227 85 182 2.0 4.0 0.00 0.00 0.00 25 1018.4
20171021210905 84 83 1.0 4.0 0.00 0.00 0.00 25 1018.5
20171021210832 84 83 1.0 4.0 0.00 0.00 0.00 25 1018.5
20171021210830 84 83 1.0 4.0 0.00 0.00 0.00 25 1018.5
20171021210826 84 83 1.0 4.0 0.00 0.00 0.00 25 1018.5
20171021210429 85 2 4.0 6.0 0.00 0.00 0.00 25 1018.7
20171021210425 85 2 4.0 6.0 0.00 0.00 0.00 25 1018.7
20171021210023 85 24 0.0 1.0 0.00 0.00 0.00 25 1018.6
20171021205747 84 52 1.0 3.0 0.00 0.00 0.00 25 1018.7
20171021205622 84 52 1.0 3.0 0.00 0.00 0.00 25 1018.7
20171021205221 83 140 2.0 7.0 0.00 0.00 0.00 26 1018.7
20171021204820 83 182 5.0 7.0 0.00 0.00 0.00 26 1018.8
20171021204418 82 204 5.0 8.0 0.00 0.00 0.00 26 1018.8
20171021204358 81 20 4.0 6.0 0.00 0.00 0.00 26 1018.8
20171021204116 81 20 4.0 6.0 0.00 0.00 0.00 26 1018.8
20171021204023 81 20 4.0 6.0 0.00 0.00 0.00 26 1018.8
20171021204017 81 20 4.0 6.0 0.00 0.00 0.00 26 1018.8
20171021203707 82 321 2.0 4.0 0.00 0.00 0.00 26 1018.9
20171021203615 82 321 2.0 4.0 0.00 0.00 0.00 26 1018.9
20171021203437 83 315 2.0 4.0 0.00 0.00 0.00 26 1019.0
20171021203218 83 315 2.0 4.0 0.00 0.00 0.00 26 1019.0
20171021203214 83 315 2.0 4.0 0.00 0.00 0.00 26 1019.0
20171021202813 83 234 2.0 6.0 0.00 0.00 0.00 26 1019.1
20171021202504 81 237 3.0 5.0 0.00 0.00 0.00 26 1019.1
20171021202418 81 237 3.0 5.0 0.00 0.00 0.00 26 1019.1
20171021202412 81 237 3.0 5.0 0.00 0.00 0.00 26 1019.1
20171021202121 81 321 2.0 4.0 0.00 0.00 0.00 26 1019.1
20171021202010 81 321 2.0 4.0 0.00 0.00 0.00 26 1019.1
20171021201700 80 326 0.0 5.0 0.00 0.00 0.00 27 1019.1
20171021201616 80 326 0.0 5.0 0.00 0.00 0.00 27 1019.1
20171021201614 80 326 0.0 5.0 0.00 0.00 0.00 27 1019.1
20171021201609 80 326 0.0 5.0 0.00 0.00 0.00 27 1019.1
20171021201207 80 15 1.0 5.0 0.00 0.00 0.00 27 1019.1
20171021200405 83 52 0.0 3.0 0.00 0.00 0.00 27 1019.3
20171021200004 82 187 1.0 4.0 0.00 0.00 0.00 27 1019.4
20171021195602 81 180 1.0 4.0 0.00 0.00 0.00 27 1019.6
20171021195201 80 334 0.0 4.0 0.00 0.00 0.00 27 1019.7
20171021194759 79 225 4.0 5.0 0.00 0.00 0.00 27 1019.8
20171021194358 78 324 5.0 8.0 0.00 0.00 0.00 28 1019.8
20171021193957 79 4 3.0 5.0 0.00 0.00 0.00 28 1019.9
20171021193602 77 85 2.0 8.0 0.00 0.00 0.00 28 1019.9
20171021193556 77 85 2.0 8.0 0.00 0.00 0.00 28 1019.9
20171021193104 78 90 9.0 10.0 0.00 0.00 0.00 29 1019.9
20171021193019 78 90 9.0 10.0 0.00 0.00 0.00 29 1019.9
20171021192933 78 90 9.0 10.0 0.00 0.00 0.00 29 1019.9
20171021192847 78 185 3.0 7.0 0.00 0.00 0.00 28 1019.9
20171021192759 77 101 3.0 10.0 0.00 0.00 0.00 29 1019.9
20171021192753 77 38 4.0 8.0 0.00 0.00 0.00 28 1019.9
20171021192709 77 101 3.0 10.0 0.00 0.00 0.00 29 1019.9
20171021192618 78 90 9.0 10.0 0.00 0.00 0.00 29 1019.9
20171021192527 78 90 9.0 10.0 0.00 0.00 0.00 29 1019.9
20171021192434 78 90 9.0 10.0 0.00 0.00 0.00 29 1019.9
20171021192359 77 40 3.0 10.0 0.00 0.00 0.00 28 1020.0
20171021192351 77 40 3.0 10.0 0.00 0.00 0.00 28 1020.0
20171021192341 78 90 9.0 10.0 0.00 0.00 0.00 29 1019.9
20171021192245 78 90 9.0 10.0 0.00 0.00 0.00 29 1019.9
20171021192148 77 101 3.0 10.0 0.00 0.00 0.00 29 1019.9
20171021192048 77 101 3.0 10.0 0.00 0.00 0.00 29 1019.9
20171021191947 78 90 9.0 10.0 0.00 0.00 0.00 29 1019.9
20171021191845 78 185 3.0 7.0 0.00 0.00 0.00 28 1019.9
20171021191741 77 101 3.0 10.0 0.00 0.00 0.00 29 1019.9
20171021191635 78 90 9.0 10.0 0.00 0.00 0.00 29 1019.9
20171021191549 78 185 3.0 7.0 0.00 0.00 0.00 28 1019.9
20171021191526 78 90 9.0 10.0 0.00 0.00 0.00 29 1019.9
20171021191417 77 101 3.0 10.0 0.00 0.00 0.00 29 1019.9
20171021191306 78 90 9.0 10.0 0.00 0.00 0.00 29 1019.9
20171021191256 77 101 3.0 10.0 0.00 0.00 0.00 29 1019.9
20171021191153 78 90 9.0 10.0 0.00 0.00 0.00 29 1019.9
20171021191148 77 101 3.0 10.0 0.00 0.00 0.00 29 1019.9
20171021191038 78 90 9.0 10.0 0.00 0.00 0.00 29 1019.9
20171021190919 78 90 9.0 10.0 0.00 0.00 0.00 29 1019.9
20171021190753 78 90 9.0 10.0 0.00 0.00 0.00 29 1019.9
20171021190751 78 90 9.0 10.0 0.00 0.00 0.00 29 1019.9
20171021190747 78 90 9.0 10.0 0.00 0.00 0.00 29 1019.9
20171021190037 77 184 3.0 8.0 0.00 0.00 0.00 29 1019.9
20171021185945 77 184 3.0 8.0 0.00 0.00 0.00 29 1019.9
20171021185943 77 184 3.0 8.0 0.00 0.00 0.00 29 1019.9
20171021185621 77 0 0.0 4.0 0.00 0.00 0.00 29 1019.9
20171021185542 77 0 0.0 4.0 0.00 0.00 0.00 29 1019.9
20171021185220 76 123 5.0 7.0 0.00 0.00 0.00 29 1019.9
20171021185145 76 123 5.0 7.0 0.00 0.00 0.00 29 1019.9
20171021185141 76 123 5.0 7.0 0.00 0.00 0.00 29 1019.9
20171021184830 76 149 1.0 8.0 0.00 0.00 0.00 30 1019.9
20171021184740 76 149 1.0 8.0 0.00 0.00 0.00 30 1019.9
20171021184441 75 40 2.0 11.0 0.00 0.00 0.00 30 1020.0
20171021184343 75 40 2.0 11.0 0.00 0.00 0.00 30 1020.0
20171021184339 75 40 2.0 11.0 0.00 0.00 0.00 30 1020.0
20171021184036 76 105 3.0 9.0 0.00 0.00 0.00 30 1020.0
20171021183941 76 105 3.0 9.0 0.00 0.00 0.00 30 1020.0
20171021183937 76 105 3.0 9.0 0.00 0.00 0.00 30 1020.0
20171021183627 76 51 6.0 7.0 0.00 0.00 0.00 30 1020.0
20171021183535 76 51 6.0 7.0 0.00 0.00 0.00 30 1020.0
20171021183223 76 18 0.0 11.0 0.00 0.00 0.00 31 1019.9
20171021183134 76 18 0.0 11.0 0.00 0.00 0.00 31 1019.9
20171021182849 76 90 11.0 11.0 0.00 0.00 0.00 31 1019.8
20171021182733 76 90 11.0 11.0 0.00 0.00 0.00 31 1019.8
20171021182439 75 114 7.0 12.0 0.00 0.00 0.00 31 1019.9
20171021182335 75 114 7.0 12.0 0.00 0.00 0.00 31 1019.9
20171021182332 75 114 7.0 12.0 0.00 0.00 0.00 31 1019.9
20171021182036 76 87 9.0 9.0 0.00 0.00 0.00 31 1019.8
20171021181941 76 87 9.0 9.0 0.00 0.00 0.00 31 1019.8
20171021181939 76 87 9.0 9.0 0.00 0.00 0.00 31 1019.8
20171021181931 76 87 9.0 9.0 0.00 0.00 0.00 31 1019.8
20171021181634 75 45 6.0 8.0 0.00 0.00 0.00 32 1019.9
20171021181535 75 45 6.0 8.0 0.00 0.00 0.00 32 1019.9
20171021181533 74 45 1.0 8.0 0.00 0.00 0.00 32 1019.9
20171021181530 75 45 6.0 8.0 0.00 0.00 0.00 32 1019.9
20171021181247 74 45 1.0 8.0 0.00 0.00 0.00 32 1019.9
20171021181130 74 45 1.0 8.0 0.00 0.00 0.00 32 1019.9
20171021181128 74 45 1.0 8.0 0.00 0.00 0.00 32 1019.9
20171021181109 75 49 7.0 8.0 0.00 0.00 0.00 32 1019.8
20171021180726 75 49 7.0 8.0 0.00 0.00 0.00 32 1019.8
20171021180635 74 9 4.0 6.0 0.00 0.00 0.00 32 1019.9
20171021180325 74 9 4.0 6.0 0.00 0.00 0.00 32 1019.9
20171021175924 74 38 5.0 10.0 0.00 0.00 0.00 33 1019.8
20171021175758 73 0 7.0 12.0 0.00 0.00 0.00 33 1019.9
20171021175620 73 0 7.0 12.0 0.00 0.00 0.00 33 1019.9
20171021175523 73 0 7.0 12.0 0.00 0.00 0.00 33 1019.9
20171021174720 72 24 7.0 7.0 0.00 0.00 0.00 33 1019.8
20171021174559 72 337 1.0 6.0 0.00 0.00 0.00 34 1019.9
20171021174411 72 337 1.0 6.0 0.00 0.00 0.00 34 1019.9
20171021174318 72 337 1.0 6.0 0.00 0.00 0.00 34 1019.9
20171021174204 71 339 5.0 8.0 0.00 0.00 0.00 34 1019.9
20171021173926 71 339 5.0 8.0 0.00 0.00 0.00 34 1019.9
20171021173917 71 339 5.0 8.0 0.00 0.00 0.00 34 1019.9
20171021173824 72 351 3.0 6.0 0.00 0.00 0.00 34 1020.0
20171021173655 72 351 3.0 6.0 0.00 0.00 0.00 34 1020.0
20171021173516 72 351 3.0 6.0 0.00 0.00 0.00 34 1020.0
20171021173500 72 301 4.0 7.0 0.00 0.00 0.00 34 1020.0
20171021173318 72 301 4.0 7.0 0.00 0.00 0.00 34 1020.0
20171021173240 72 301 4.0 7.0 0.00 0.00 0.00 34 1020.0
20171021173115 72 301 4.0 7.0 0.00 0.00 0.00 34 1020.0
20171021172714 72 315 4.0 5.0 0.00 0.00 0.00 35 1019.9
20171021172536 72 265 4.0 4.0 0.00 0.00 0.00 35 1019.9
20171021172417 72 265 4.0 4.0 0.00 0.00 0.00 35 1019.9
20171021172312 72 265 4.0 4.0 0.00 0.00 0.00 35 1019.9
20171021171911 72 285 1.0 7.0 0.00 0.00 0.00 35 1019.9
20171021171825 73 288 7.0 7.0 0.00 0.00 0.00 35 1020.1
20171021171509 73 288 7.0 7.0 0.00 0.00 0.00 35 1020.1
20171021171108 73 276 2.0 8.0 0.00 0.00 0.00 35 1020.0
20171021170707 73 202 3.0 6.0 0.00 0.00 0.00 36 1020.0
20171021170231 72 180 0.0 5.0 0.00 0.00 0.00 36 1020.0
20171021170020 72 180 0.0 5.0 0.00 0.00 0.00 36 1020.0
20171021165911 72 180 0.0 5.0 0.00 0.00 0.00 36 1020.0
20171021165904 72 180 0.0 5.0 0.00 0.00 0.00 36 1020.0
20171021165804 72 191 4.0 4.0 0.00 0.00 0.00 36 1020.0
20171021165618 72 191 4.0 4.0 0.00 0.00 0.00 36 1020.0
20171021165503 72 191 4.0 4.0 0.00 0.00 0.00 36 1020.0
20171021165102 71 202 0.0 1.0 0.00 0.00 0.00 36 1020.1
20171021165021 71 90 0.0 0.0 0.00 0.00 0.00 36 1020.1
20171021164852 71 90 0.0 0.0 0.00 0.00 0.00 36 1020.1
20171021164700 71 90 0.0 0.0 0.00 0.00 0.00 36 1020.1
20171021164613 70 175 1.0 2.0 0.00 0.00 0.00 37 1020.0
20171021164410 70 175 1.0 2.0 0.00 0.00 0.00 37 1020.0
20171021164302 70 175 1.0 2.0 0.00 0.00 0.00 37 1020.0
20171021164259 70 175 1.0 2.0 0.00 0.00 0.00 37 1020.0
20171021163456 68 180 3.0 4.0 0.00 0.00 0.00 37 1020.0
20171021163359 67 45 0.0 2.0 0.00 0.00 0.00 37 1020.1
20171021163100 67 45 0.0 2.0 0.00 0.00 0.00 37 1020.1
20171021163055 67 45 0.0 2.0 0.00 0.00 0.00 37 1020.1
20171021162953 67 225 0.0 1.0 0.00 0.00 0.00 37 1020.0
20171021162753 67 225 0.0 1.0 0.00 0.00 0.00 37 1020.0
20171021162659 67 225 0.0 1.0 0.00 0.00 0.00 37 1020.0
20171021162654 67 225 0.0 1.0 0.00 0.00 0.00 37 1020.0
20171021162252 66 90 1.0 5.0 0.00 0.00 0.00 37 1020.1
20171021162213 66 90 4.0 6.0 0.00 0.00 0.00 37 1020.0
20171021161938 66 130 3.0 6.0 0.00 0.00 0.00 38 1020.0
20171021161851 66 90 4.0 6.0 0.00 0.00 0.00 37 1020.0
20171021161557 66 130 3.0 6.0 0.00 0.00 0.00 38 1020.0
20171021161453 66 130 3.0 6.0 0.00 0.00 0.00 38 1020.0
20171021161450 66 130 3.0 6.0 0.00 0.00 0.00 38 1020.0
20171021161048 66 99 3.0 3.0 0.00 0.00 0.00 38 1019.9
20171021160647 65 83 3.0 4.0 0.00 0.00 0.00 38 1019.8
20171021160602 65 90 0.0 1.0 0.00 0.00 0.00 38 1019.9
20171021160246 65 90 0.0 1.0 0.00 0.00 0.00 38 1019.9
20171021155844 63 0 1.0 3.0 0.00 0.00 0.00 38 1019.8
20171021155759 62 0 2.0 3.0 0.00 0.00 0.02 38 1019.8
20171021155542 62 0 2.0 3.0 0.00 0.00 0.02 38 1019.8
20171021155448 62 0 2.0 3.0 0.00 0.00 0.02 38 1019.8
20171021155443 62 0 2.0 3.0 0.00 0.00 0.02 38 1019.8
20171021155042 62 45 3.0 3.0 0.00 0.00 0.02 38 1019.7
20171021155038 61 45 2.0 2.0 0.00 0.00 0.02 38 1019.7
20171021154640 61 45 2.0 2.0 0.00 0.00 0.02 38 1019.7
20171021154530 61 45 0.0 1.0 0.00 0.00 0.02 38 1019.7
20171021154310 61 45 0.0 1.0 0.00 0.00 0.02 38 1019.7
20171021154239 61 45 0.0 1.0 0.00 0.00 0.02 38 1019.7
20171021154145 61 45 1.0 2.0 0.00 0.00 0.02 38 1019.6
20171021153900 61 45 1.0 2.0 0.00 0.00 0.02 38 1019.4
20171021153838 61 45 1.0 2.0 0.00 0.00 0.02 38 1019.6
20171021153548 61 45 1.0 2.0 0.00 0.00 0.02 38 1019.4
20171021153452 60 0 0.0 1.0 0.00 0.00 0.02 38 1019.4
20171021153441 61 45 1.0 2.0 0.00 0.00 0.02 38 1019.4
20171021153437 61 45 1.0 2.0 0.00 0.00 0.02 38 1019.4
20171021153035 60 0 0.0 1.0 0.00 0.00 0.02 38 1019.4
20171021152952 60 24 2.0 2.0 0.00 0.00 0.02 38 1019.3
20171021152710 60 24 2.0 2.0 0.00 0.00 0.02 38 1019.3
20171021152639 60 24 2.0 2.0 0.00 0.00 0.02 38 1019.3
20171021152634 60 24 2.0 2.0 0.00 0.00 0.02 38 1019.3
20171021152541 60 24 0.0 1.0 0.00 0.00 0.02 38 1019.1
20171021152319 60 24 0.0 1.0 0.00 0.00 0.02 38 1019.1
20171021152232 60 24 0.0 1.0 0.00 0.00 0.02 38 1019.1
20171021151831 60 45 2.0 2.0 0.00 0.00 0.02 38 1019.2
20171021151528 60 90 1.0 2.0 0.00 0.00 0.02 38 1019.0
20171021151438 60 90 1.0 2.0 0.00 0.00 0.02 38 1019.0
20171021151430 60 90 1.0 2.0 0.00 0.00 0.02 38 1019.0
20171021151029 59 90 0.0 2.0 0.00 0.00 0.02 38 1019.0
20171021150900 58 249 2.0 2.0 0.00 0.00 0.02 38 1019.1
20171021150632 58 249 2.0 2.0 0.00 0.00 0.02 38 1019.1
20171021150628 58 249 2.0 2.0 0.00 0.00 0.02 38 1019.1
20171021150226 58 177 2.0 2.0 0.00 0.00 0.02 38 1019.0
20171021145527 57 90 1.0 3.0 0.00 0.00 0.02 38 1018.9
20171021145427 57 90 1.0 3.0 0.00 0.00 0.02 38 1018.9
20171021145423 57 90 1.0 3.0 0.00 0.00 0.02 38 1018.9
20171021145022 57 90 2.0 2.0 0.00 0.00 0.02 38 1018.9
20171021144943 56 49 0.0 1.0 0.00 0.00 0.02 38 1018.8
20171021144656 56 49 0.0 1.0 0.00 0.00 0.02 38 1018.8
20171021144624 56 49 0.0 1.0 0.00 0.00 0.02 38 1018.8
20171021144621 56 49 0.0 1.0 0.00 0.00 0.02 38 1018.8
20171021144509 55 236 0.0 0.0 0.00 0.00 0.02 38 1018.7
20171021144352 55 236 0.0 0.0 0.00 0.00 0.02 38 1018.7
20171021144225 55 236 0.0 0.0 0.00 0.00 0.02 38 1018.7
20171021144220 55 236 0.0 0.0 0.00 0.00 0.02 38 1018.7
20171021144108 54 63 0.0 2.0 0.00 0.00 0.02 38 1018.6
20171021143818 54 63 0.0 2.0 0.00 0.00 0.02 38 1018.6
20171021143616 54 87 0.0 2.0 0.00 0.00 0.02 38 1018.6
20171021143454 54 87 0.0 2.0 0.00 0.00 0.02 38 1018.6
20171021143420 54 87 0.0 2.0 0.00 0.00 0.02 38 1018.6
20171021143416 54 87 0.0 2.0 0.00 0.00 0.02 38 1018.6
20171021143341 54 90 0.0 1.0 0.00 0.00 0.02 38 1018.5
20171021143022 54 90 0.0 1.0 0.00 0.00 0.02 38 1018.5
20171021143015 54 90 0.0 1.0 0.00 0.00 0.02 38 1018.5
20171021142706 53 153 0.0 2.0 0.00 0.00 0.02 38 1018.5
20171021142614 53 225 0.0 0.0 0.00 0.00 0.02 38 1018.5
20171021142220 53 153 0.0 2.0 0.00 0.00 0.02 38 1018.5
20171021142213 53 153 0.0 2.0 0.00 0.00 0.02 38 1018.5
20171021141812 53 180 1.0 1.0 0.00 0.00 0.02 38 1018.3
20171021141746 53 45 3.0 4.0 0.00 0.00 0.02 38 1018.3
20171021141450 53 45 3.0 4.0 0.00 0.00 0.02 38 1018.3
20171021141414 53 45 3.0 4.0 0.00 0.00 0.02 38 1018.3
20171021141410 53 45 3.0 4.0 0.00 0.00 0.02 38 1018.3
20171021141252 54 315 0.0 0.0 0.00 0.00 0.02 37 1018.2
20171021141013 54 315 0.0 0.0 0.00 0.00 0.02 37 1018.2
20171021141008 54 315 0.0 0.0 0.00 0.00 0.02 37 1018.2
20171021140938 54 315 0.0 2.0 0.00 0.00 0.02 37 1018.2
20171021140618 54 315 0.0 2.0 0.00 0.00 0.02 37 1018.2
20171021140607 54 315 0.0 2.0 0.00 0.00 0.02 37 1018.2
20171021140526 54 11 1.0 2.0 0.00 0.00 0.02 37 1018.3
20171021140213 54 11 1.0 2.0 0.00 0.00 0.02 37 1018.3
20171021140206 54 11 1.0 2.0 0.00 0.00 0.02 37 1018.3
20171021140132 55 182 1.0 1.0 0.00 0.00 0.02 37 1018.4
20171021135805 55 182 1.0 1.0 0.00 0.00 0.02 37 1018.4
20171021135404 55 130 0.0 2.0 0.00 0.00 0.02 37 1018.3
20171021135332 55 32 0.0 5.0 0.00 0.00 0.02 37 1018.3
20171021135010 55 32 0.0 5.0 0.00 0.00 0.02 37 1018.3
20171021135003 55 32 0.0 5.0 0.00 0.00 0.02 37 1018.3
20171021134959 56 348 1.0 2.0 0.00 0.00 0.02 37 1018.3
20171021134605 56 348 1.0 2.0 0.00 0.00 0.02 37 1018.3
20171021134601 56 348 1.0 2.0 0.00 0.00 0.02 37 1018.3
20171021134538 56 249 3.0 4.0 0.00 0.00 0.02 37 1018.2
20171021134231 56 276 2.0 5.0 0.00 0.00 0.02 37 1018.2
20171021134204 56 249 3.0 4.0 0.00 0.00 0.02 37 1018.2
20171021134159 56 249 3.0 4.0 0.00 0.00 0.02 37 1018.2
20171021133804 0 276 2.0 5.0 0.00 0.00 0.02 37 1018.2
20171021133758 56 276 2.0 5.0 0.00 0.00 0.02 37 1018.2
20171021133357 56 270 4.0 5.0 0.00 0.00 0.02 37 1018.1
20171021133336 56 312 3.0 4.0 0.00 0.00 0.02 37 1018.2
20171021133047 56 324 3.0 4.0 0.00 0.00 0.02 37 1018.4
20171021133006 56 324 3.0 4.0 0.00 0.00 0.02 37 1018.4
20171021133000 56 312 3.0 4.0 0.00 0.00 0.02 37 1018.2
20171021132956 56 312 3.0 4.0 0.00 0.00 0.02 37 1018.2
20171021132652 56 324 3.0 4.0 0.00 0.00 0.02 37 1018.4
20171021132559 56 324 3.0 4.0 0.00 0.00 0.02 37 1018.4
20171021132557 56 285 2.0 5.0 0.00 0.00 0.02 37 1018.4
20171021132554 56 324 3.0 4.0 0.00 0.00 0.02 37 1018.4
20171021132232 56 285 2.0 5.0 0.00 0.00 0.02 37 1018.4
20171021132157 56 285 2.0 5.0 0.00 0.00 0.02 37 1018.4
20171021132153 56 285 2.0 5.0 0.00 0.00 0.02 37 1018.4
20171021132147 57 274 3.0 4.0 0.00 0.00 0.02 37 1018.3
20171021131857 57 274 3.0 4.0 0.00 0.00 0.02 37 1018.3
20171021131755 57 274 3.0 4.0 0.00 0.00 0.02 37 1018.3
20171021131751 57 274 3.0 4.0 0.00 0.00 0.02 37 1018.3
20171021131743 57 310 3.0 5.0 0.00 0.00 0.02 37 1018.2
20171021131354 57 310 3.0 5.0 0.00 0.00 0.02 37 1018.2
20171021131350 57 310 3.0 5.0 0.00 0.00 0.02 37 1018.2
20171021130949 57 333 4.0 5.0 0.00 0.00 0.02 37 1018.2
20171021130548 56 281 3.0 6.0 0.00 0.00 0.02 37 1018.3
20171021130542 56 310 6.0 7.0 0.00 0.00 0.02 37 1018.3
20171021130237 56 310 6.0 7.0 0.00 0.00 0.02 37 1018.3
20171021130158 56 310 6.0 7.0 0.00 0.00 0.02 37 1018.3
20171021130146 56 310 6.0 7.0 0.00 0.00 0.02 37 1018.3
20171021125745 56 328 4.0 7.0 0.00 0.00 0.02 37 1018.3
20171021125708 56 315 2.0 4.0 0.00 0.00 0.02 37 1018.1
20171021125343 56 315 2.0 4.0 0.00 0.00 0.02 37 1018.1
20171021125237 57 328 5.0 6.0 0.00 0.00 0.02 37 1018.1
20171021124949 57 328 5.0 6.0 0.00 0.00 0.02 37 1018.1
20171021124942 57 328 5.0 6.0 0.00 0.00 0.02 37 1018.1
20171021124600 56 211 1.0 2.0 0.00 0.00 0.02 37 1018.3
20171021124541 56 270 2.0 2.0 0.00 0.00 0.02 37 1018.2
20171021124231 56 211 1.0 2.0 0.00 0.00 0.02 37 1018.3
20171021124144 56 211 1.0 2.0 0.00 0.00 0.02 37 1018.3
20171021124140 56 211 1.0 2.0 0.00 0.00 0.02 37 1018.3
20171021123907 56 148 0.0 3.0 0.00 0.00 0.02 37 1018.2
20171021123744 56 148 0.0 3.0 0.00 0.00 0.02 37 1018.2
20171021123738 56 148 0.0 3.0 0.00 0.00 0.02 37 1018.2
20171021123337 56 180 2.0 2.0 0.00 0.00 0.02 37 1018.1
20171021123249 56 45 0.0 4.0 0.00 0.00 0.02 37 1018.2
20171021122935 56 45 0.0 4.0 0.00 0.00 0.02 37 1018.2
20171021122836 57 211 3.0 3.0 0.00 0.00 0.02 37 1018.0
20171021122541 57 211 3.0 3.0 0.00 0.00 0.02 37 1018.0
20171021122534 57 211 3.0 3.0 0.00 0.00 0.02 37 1018.0
20171021122133 57 191 3.0 4.0 0.00 0.00 0.02 36 1018.1
20171021121732 57 207 1.0 6.0 0.00 0.00 0.02 36 1018.2
20171021121316 58 200 2.0 4.0 0.00 0.00 0.02 36 1018.1
20171021121040 58 200 2.0 4.0 0.00 0.00 0.02 36 1018.1
20171021120933 58 200 2.0 4.0 0.00 0.00 0.02 36 1018.1
20171021120929 58 200 2.0 4.0 0.00 0.00 0.02 36 1018.1
20171021120543 58 326 3.0 6.0 0.00 0.00 0.02 36 1017.9
20171021120528 58 265 3.0 8.0 0.00 0.00 0.02 36 1018.0
20171021120155 58 330 3.0 9.0 0.00 0.00 0.02 36 1017.9
20171021120132 58 326 3.0 6.0 0.00 0.00 0.02 36 1017.9
20171021120126 58 326 3.0 6.0 0.00 0.00 0.02 36 1017.9
20171021115730 58 330 3.0 9.0 0.00 0.00 0.02 36 1017.9
20171021115725 58 330 3.0 9.0 0.00 0.00 0.02 36 1017.9
20171021115643 58 342 6.0 15.0 0.00 0.00 0.02 36 1017.9
20171021115334 58 342 6.0 15.0 0.00 0.00 0.02 36 1017.9
20171021115324 58 342 6.0 15.0 0.00 0.00 0.02 36 1017.9
20171021115253 58 0 8.0 13.0 0.00 0.00 0.02 36 1017.9
20171021115016 58 355 7.0 16.0 0.00 0.00 0.02 36 1017.8
20171021114922 58 0 8.0 13.0 0.00 0.00 0.02 36 1017.9
20171021114627 58 355 7.0 16.0 0.00 0.00 0.02 36 1017.8
20171021114525 58 355 7.0 16.0 0.00 0.00 0.02 36 1017.8
20171021114521 58 355 7.0 16.0 0.00 0.00 0.02 36 1017.8
20171021114454 58 337 10.0 18.0 0.00 0.00 0.02 36 1017.7
20171021114153 58 337 10.0 18.0 0.00 0.00 0.02 36 1017.7
20171021114126 58 337 10.0 18.0 0.00 0.00 0.02 36 1017.7
20171021114120 58 337 10.0 18.0 0.00 0.00 0.02 36 1017.7
20171021113719 58 355 10.0 19.0 0.00 0.00 0.02 36 1017.6
20171021113317 58 0 11.0 18.0 0.00 0.00 0.02 36 1017.6
20171021113113 58 353 18.0 20.0 0.00 0.00 0.02 36 1017.5
20171021113057 58 351 10.0 20.0 0.00 0.00 0.02 36 1017.6
20171021113042 58 353 14.0 14.0 0.00 0.00 0.01 37 1017.7
20171021113022 58 335 7.0 16.0 0.00 0.00 0.02 36 1017.6
20171021113000 58 4 9.0 9.0 0.00 0.00 0.01 37 1017.9
20171021112959 59 355 13.0 19.0 0.00 0.00 0.01 37 1017.4
20171021112946 58 335 7.0 16.0 0.00 0.00 0.02 36 1017.6
20171021112924 58 353 14.0 14.0 0.00 0.00 0.01 37 1017.7
20171021112916 58 357 14.0 18.0 0.00 0.00 0.02 36 1017.5
20171021112910 58 335 7.0 16.0 0.00 0.00 0.02 36 1017.6
20171021112848 59 0 9.0 15.0 0.00 0.00 0.01 37 1017.7
20171021112834 58 335 7.0 16.0 0.00 0.00 0.02 36 1017.6
20171021112816 58 4 11.0 14.0 0.00 0.00 0.01 37 1017.8
20171021112755 58 335 7.0 16.0 0.00 0.00 0.02 36 1017.6
20171021112744 58 353 14.0 14.0 0.00 0.00 0.01 37 1017.7
20171021112724 58 335 7.0 16.0 0.00 0.00 0.02 36 1017.6
20171021112713 58 353 14.0 14.0 0.00 0.00 0.01 37 1017.7
20171021112651 58 351 10.0 20.0 0.00 0.00 0.02 36 1017.6
20171021112638 58 353 14.0 14.0 0.00 0.00 0.01 37 1017.7
20171021112614 58 335 7.0 16.0 0.00 0.00 0.02 36 1017.6
20171021112602 58 353 18.0 20.0 0.00 0.00 0.02 36 1017.5
20171021112538 58 335 7.0 16.0 0.00 0.00 0.02 36 1017.6
20171021112526 58 351 10.0 15.0 0.00 0.00 0.01 37 1017.7
20171021112515 58 355 10.0 15.0 0.00 0.00 0.02 36 1017.6
20171021112459 58 335 7.0 16.0 0.00 0.00 0.02 36 1017.6
20171021112444 58 353 14.0 14.0 0.00 0.00 0.01 37 1017.7
20171021112417 58 335 7.0 16.0 0.00 0.00 0.02 36 1017.6
20171021112403 58 2 4.0 11.0 0.00 0.00 0.01 37 1017.8
20171021112336 58 335 7.0 16.0 0.00 0.00 0.02 36 1017.6
20171021112320 58 348 10.0 11.0 0.00 0.00 0.01 37 1017.9
20171021112305 58 335 7.0 16.0 0.00 0.00 0.02 36 1017.6
20171021112248 58 4 9.0 9.0 0.00 0.00 0.01 37 1017.9
20171021112231 58 335 7.0 16.0 0.00 0.00 0.02 36 1017.6
20171021112212 59 355 13.0 19.0 0.00 0.00 0.01 37 1017.4
20171021112154 58 351 10.0 20.0 0.00 0.00 0.02 36 1017.6
20171021112135 58 348 15.0 15.0 0.00 0.00 0.01 37 1017.6
20171021112117 58 351 10.0 20.0 0.00 0.00 0.02 36 1017.6
20171021112113 58 351 12.0 15.0 0.00 0.00 0.02 36 1017.6
20171021112058 59 355 13.0 19.0 0.00 0.00 0.01 37 1017.4
20171021112038 58 351 10.0 20.0 0.00 0.00 0.02 36 1017.6
20171021112018 58 351 10.0 15.0 0.00 0.00 0.01 37 1017.7
20171021111957 58 351 10.0 20.0 0.00 0.00 0.02 36 1017.6
20171021111937 58 4 11.0 14.0 0.00 0.00 0.01 37 1017.8
20171021111917 58 351 10.0 20.0 0.00 0.00 0.02 36 1017.6
20171021111856 58 2 4.0 11.0 0.00 0.00 0.01 37 1017.8
20171021111836 58 351 10.0 20.0 0.00 0.00 0.02 36 1017.6
20171021111816 58 348 20.0 20.0 0.00 0.00 0.02 37 1017.6
20171021111756 58 351 10.0 20.0 0.00 0.00 0.02 36 1017.6
20171021111735 59 0 9.0 15.0 0.00 0.00 0.01 37 1017.7
20171021111716 58 335 7.0 16.0 0.00 0.00 0.02 36 1017.6
20171021111712 58 335 7.0 16.0 0.00 0.00 0.02 36 1017.6
20171021111655 58 351 10.0 15.0 0.00 0.00 0.01 37 1017.7
20171021111611 58 353 18.0 20.0 0.00 0.00 0.02 36 1017.5
20171021111527 58 4 11.0 14.0 0.00 0.00 0.01 37 1017.8
20171021111443 59 355 13.0 19.0 0.00 0.00 0.01 37 1017.4
20171021111356 59 0 9.0 15.0 0.00 0.00 0.01 37 1017.7
20171021111311 58 351 10.0 20.0 0.00 0.00 0.02 36 1017.6
20171021111304 58 353 14.0 14.0 0.00 0.00 0.01 37 1017.7
20171021111208 59 0 9.0 15.0 0.00 0.00 0.01 37 1017.7
20171021111110 58 348 20.0 20.0 0.00 0.00 0.02 37 1017.6
20171021111010 59 355 13.0 19.0 0.00 0.00 0.01 37 1017.4
20171021110938 58 348 15.0 15.0 0.00 0.00 0.01 37 1017.6
20171021110913 58 353 18.0 20.0 0.00 0.00 0.02 36 1017.5
20171021110910 58 353 18.0 20.0 0.00 0.00 0.02 36 1017.5
20171021110905 58 348 20.0 20.0 0.00 0.00 0.02 37 1017.6
20171021110832 58 348 15.0 15.0 0.00 0.00 0.01 37 1017.6
20171021110758 58 4 11.0 14.0 0.00 0.00 0.01 37 1017.8
20171021110723 58 353 14.0 14.0 0.00 0.00 0.01 37 1017.7
20171021110649 58 353 14.0 14.0 0.00 0.00 0.01 37 1017.7
20171021110612 58 2 4.0 11.0 0.00 0.00 0.01 37 1017.8
20171021110534 58 4 11.0 14.0 0.00 0.00 0.01 37 1017.8
20171021110508 58 339 8.0 20.0 0.00 0.00 0.02 36 1017.6
20171021110456 58 348 10.0 11.0 0.00 0.00 0.01 37 1017.9
20171021110416 58 2 4.0 11.0 0.00 0.00 0.01 37 1017.8
20171021110335 58 351 10.0 15.0 0.00 0.00 0.01 37 1017.7
20171021110253 58 353 14.0 14.0 0.00 0.00 0.01 37 1017.7
20171021110212 58 351 10.0 15.0 0.00 0.00 0.01 37 1017.7
20171021110128 58 351 10.0 15.0 0.00 0.00 0.01 37 1017.7
20171021110107 58 348 20.0 20.0 0.00 0.00 0.02 37 1017.6
20171021110044 58 351 10.0 15.0 0.00 0.00 0.01 37 1017.7
20171021105957 58 348 15.0 15.0 0.00 0.00 0.01 37 1017.6
20171021105911 58 4 9.0 9.0 0.00 0.00 0.01 37 1017.9
20171021105823 58 4 11.0 14.0 0.00 0.00 0.01 37 1017.8
20171021105735 58 351 10.0 15.0 0.00 0.00 0.01 37 1017.7
20171021105708 58 353 14.0 14.0 0.00 0.00 0.01 37 1017.7
20171021105705 58 353 14.0 14.0 0.00 0.00 0.01 37 1017.7
20171021105646 58 348 15.0 15.0 0.00 0.00 0.01 37 1017.6
20171021105556 58 348 15.0 15.0 0.00 0.00 0.01 37 1017.6
20171021105504 58 348 10.0 11.0 0.00 0.00 0.01 37 1017.9
20171021105410 58 348 10.0 11.0 0.00 0.00 0.01 37 1017.9
20171021105315 58 348 15.0 15.0 0.00 0.00 0.01 37 1017.6
20171021105308 58 351 10.0 15.0 0.00 0.00 0.01 37 1017.7
20171021105304 58 351 10.0 15.0 0.00 0.00 0.01 37 1017.7
20171021105219 58 348 10.0 11.0 0.00 0.00 0.01 37 1017.9
20171021105123 58 348 10.0 11.0 0.00 0.00 0.01 37 1017.9
20171021105027 58 348 10.0 11.0 0.00 0.00 0.01 37 1017.9
20171021104931 58 4 9.0 9.0 0.00 0.00 0.01 37 1017.9
20171021104907 58 348 15.0 15.0 0.00 0.00 0.01 37 1017.6
20171021104903 58 348 15.0 15.0 0.00 0.00 0.01 37 1017.6
20171021104833 58 348 10.0 11.0 0.00 0.00 0.01 37 1017.9
20171021104735 58 4 9.0 9.0 0.00 0.00 0.01 37 1017.9
20171021104636 58 348 10.0 11.0 0.00 0.00 0.01 37 1017.9
20171021104549 58 4 11.0 14.0 0.00 0.00 0.01 37 1017.8
20171021104533 59 355 13.0 19.0 0.00 0.00 0.01 37 1017.4
20171021104502 58 4 11.0 14.0 0.00 0.00 0.01 37 1017.8
20171021104429 59 0 9.0 15.0 0.00 0.00 0.01 37 1017.7
20171021104324 58 2 4.0 11.0 0.00 0.00 0.01 37 1017.8
20171021104149 58 348 10.0 11.0 0.00 0.00 0.01 37 1017.9
20171021104109 59 0 9.0 15.0 0.00 0.00 0.01 37 1017.7
20171021104106 58 348 10.0 11.0 0.00 0.00 0.01 37 1017.9
20171021104100 58 348 10.0 11.0 0.00 0.00 0.01 37 1017.9
20171021103959 59 355 13.0 19.0 0.00 0.00 0.01 37 1017.4
20171021103847 58 2 4.0 11.0 0.00 0.00 0.01 37 1017.8
20171021103735 59 0 9.0 15.0 0.00 0.00 0.01 37 1017.7
20171021103707 58 4 9.0 9.0 0.00 0.00 0.01 37 1017.9
20171021103659 58 4 9.0 9.0 0.00 0.00 0.01 37 1017.9
20171021103619 59 355 13.0 19.0 0.00 0.00 0.01 37 1017.4
20171021103503 59 0 9.0 15.0 0.00 0.00 0.01 37 1017.7
20171021103358 58 2 4.0 11.0 0.00 0.00 0.01 37 1017.8
20171021103343 59 355 13.0 19.0 0.00 0.00 0.01 37 1017.4
20171021103303 58 2 4.0 11.0 0.00 0.00 0.01 37 1017.8
20171021103258 58 2 4.0 11.0 0.00 0.00 0.01 37 1017.8
20171021103221 59 355 13.0 19.0 0.00 0.00 0.01 37 1017.4
20171021103057 59 355 13.0 19.0 0.00 0.00 0.01 37 1017.4
20171021102933 59 355 13.0 19.0 0.00 0.00 0.01 37 1017.4
20171021102900 59 0 9.0 15.0 0.00 0.00 0.01 37 1017.7
20171021102857 59 0 9.0 15.0 0.00 0.00 0.01 37 1017.7
20171021102805 59 355 13.0 19.0 0.00 0.00 0.01 37 1017.4
20171021102637 59 355 13.0 19.0 0.00 0.00 0.01 37 1017.4
20171021102506 59 355 13.0 19.0 0.00 0.00 0.01 37 1017.4
20171021102455 59 0 13.0 16.0 0.00 0.00 0.01 37 1017.5
20171021102056 59 355 13.0 19.0 0.00 0.00 0.01 37 1017.4
20171021102054 59 355 13.0 19.0 0.00 0.00 0.01 37 1017.4
20171021101653 59 342 10.0 18.0 0.00 0.00 0.01 37 1017.4
20171021100852 59 344 11.0 18.0 0.00 0.00 0.01 37 1017.4
20171021100849 59 344 11.0 18.0 0.00 0.00 0.01 37 1017.4
20171021100527 58 353 8.0 17.0 0.00 0.00 0.01 37 1017.4
20171021100452 58 353 8.0 17.0 0.00 0.00 0.01 37 1017.4
20171021100448 58 353 8.0 17.0 0.00 0.00 0.01 37 1017.4
20171021100052 58 342 8.0 15.0 0.00 0.00 0.01 37 1017.4
20171021100047 58 342 8.0 15.0 0.00 0.00 0.01 37 1017.4
20171021095646 59 355 11.0 15.0 0.00 0.00 0.01 37 1017.3